GW2248 Weather Reports


time (UTC)temp
C
wind
direction
speed
KPH
gust
KPH
rain 1hr
cm
rain 24hr
cm
rain mn
cm
humidity
%
barometer
mb
20260505171827 18 236 11.3 16.1 0.00 0.00 0.00 68 1010.4
20260505171325 18 215 4.8 4.8 0.00 0.00 0.00 68 1010.3
20260505170821 19 212 4.8 8.0 0.00 0.00 0.00 66 1010.5
20260505170318 19 79 4.8 4.8 0.00 0.00 0.00 66 1010.5
20260505165814 19 150 4.8 8.0 0.00 0.00 0.00 68 1010.5
20260505165309 18 250 4.8 4.8 0.00 0.00 0.00 68 1010.5
20260505164805 18 92 4.8 8.0 0.00 0.00 0.00 68 1010.6
20260505164303 19 267 4.8 8.0 0.00 0.00 0.00 66 1010.7
20260505163801 19 284 8.0 14.5 0.00 0.00 0.00 66 1010.9
20260505163259 20 115 3.2 3.2 0.00 0.00 0.00 65 1010.8
20260505162756 21 84 3.2 4.8 0.00 0.00 0.00 63 1010.6
20260505162252 20 298 3.2 4.8 0.00 0.00 0.00 63 1010.6
20260505161750 20 243 3.2 3.2 0.00 0.00 0.00 64 1011.0
20260505161247 20 223 3.2 4.8 0.00 0.00 0.00 63 1011.0
20260505160744 20 254 6.4 11.3 0.00 0.00 0.00 62 1010.7
20260505160242 20 104 3.2 4.8 0.00 0.00 0.00 63 1011.0
20260505153221 19 65 1.6 3.2 0.00 0.00 0.00 64 1011.0
20260505152718 19 257 4.8 8.0 0.00 0.00 0.00 65 1011.1
20260505152214 20 257 3.2 4.8 0.00 0.00 0.00 64 1011.4
20260505151709 20 275 6.4 8.0 0.00 0.00 0.00 63 1011.4
20260505151207 19 289 4.8 4.8 0.00 0.00 0.00 64 1011.3
20260505150703 20 189 4.8 4.8 0.00 0.00 0.00 64 1011.3
20260505150201 20 98 9.7 11.3 0.00 0.00 0.00 64 1011.3
20260505140633 18 235 6.4 8.0 0.00 0.00 0.00 68 1011.7
20260505140131 19 94 4.8 8.0 0.00 0.00 0.00 66 1011.7
20260505124544 20 94 0.0 0.0 0.00 0.00 0.00 65 1010.8
20260505124040 20 89 1.6 3.2 0.00 0.00 0.00 65 1011.0
20260505123537 18 121 0.0 3.2 0.00 0.00 0.00 66 1010.9
20260505123033 18 280 3.2 4.8 0.00 0.00 0.00 67 1011.0
20260505122530 18 13 3.2 3.2 0.00 0.00 0.00 68 1010.9
20260505122027 17 206 3.2 4.8 0.00 0.00 0.00 71 1011.1
20260505121523 17 112 0.0 3.2 0.00 0.00 0.00 72 1011.0
20260505121020 17 169 1.6 3.2 0.00 0.00 0.00 74 1010.9
20260505120516 17 112 1.6 3.2 0.00 0.00 0.00 75 1011.0
20260505120012 17 100 3.2 3.2 0.00 0.00 0.00 74 1011.0
20260505115507 16 148 4.8 8.0 0.00 0.00 0.00 74 1010.9
20260505115005 16 78 0.0 0.0 0.00 0.00 0.00 76 1011.1
20260505114502 16 88 0.0 0.0 0.00 0.00 0.00 77 1011.1
20260505113958 16 172 3.2 3.2 0.00 0.00 0.00 77 1011.3
20260505113454 16 258 3.2 4.8 0.00 0.00 0.00 77 1010.9
20260505112949 16 117 0.0 0.0 0.00 0.00 0.00 77 1010.9
20260505112442 16 104 0.0 0.0 0.00 0.00 0.00 77 1011.1
20260505111938 15 90 0.0 0.0 0.00 0.00 0.00 79 1010.9
20260505111432 15 105 0.0 0.0 0.00 0.00 0.00 81 1011.0
20260505110929 15 104 0.0 0.0 0.00 0.00 0.00 81 1011.1
20260505110426 15 132 0.0 0.0 0.00 0.00 0.00 80 1011.0
20260505101857 12 94 0.0 0.0 0.00 0.00 0.00 92 1011.1
20260505101352 12 119 0.0 0.0 0.00 0.00 0.00 92 1010.8
20260505100848 11 88 0.0 0.0 0.00 0.00 0.00 92 1010.5
20260505100344 11 240 1.6 3.2 0.00 0.00 0.00 92 1010.6
20260505095840 11 135 1.6 3.2 0.00 0.00 0.00 92 1010.6
20260505095338 11 257 0.0 0.0 0.00 0.00 0.00 92 1010.3
20260505094833 11 131 0.0 0.0 0.00 0.00 0.00 92 1010.3
20260505094331 11 92 0.0 0.0 0.00 0.00 0.00 92 1010.2
20260505093826 11 115 1.6 3.2 0.00 0.00 0.00 92 1010.2
20260505093324 11 214 3.2 3.2 0.00 0.00 0.00 92 1010.1
20260505092821 11 246 1.6 4.8 0.00 0.00 0.00 92 1010.3
20260505092319 11 101 0.0 0.0 0.00 0.00 0.00 92 1010.2
20260505091816 11 77 3.2 3.2 0.00 0.00 0.00 92 1010.2
20260505091314 11 179 0.0 3.2 0.00 0.00 0.00 92 1010.2
20260505090812 11 91 0.0 0.0 0.00 0.00 0.00 92 1010.1
20260505090310 11 126 0.0 3.2 0.00 0.00 0.00 92 1010.2
20260505085807 11 126 0.0 0.0 0.00 0.00 0.00 92 1010.3
20260505085305 11 103 0.0 0.0 0.00 0.00 0.00 92 1010.1
20260505084802 11 133 0.0 0.0 0.00 0.00 0.00 92 1010.1
20260505084301 11 110 0.0 0.0 0.00 0.00 0.00 92 1010.3
20260505083757 11 147 0.0 0.0 0.00 0.00 0.00 92 1010.2
20260505083254 11 74 0.0 3.2 0.00 0.00 0.00 92 1010.0
20260505082750 11 93 0.0 0.0 0.00 0.00 0.00 92 1010.1
20260505082248 11 120 0.0 0.0 0.00 0.00 0.00 92 1010.0
20260505081743 11 95 3.2 3.2 0.00 0.00 0.00 92 1010.2
20260505081241 11 173 0.0 3.2 0.00 0.00 0.00 92 1010.0
20260505080738 11 103 0.0 3.2 0.00 0.00 0.00 92 1010.3
20260505080233 11 83 0.0 0.0 0.00 0.00 0.00 92 1010.3
20260505075729 11 84 1.6 3.2 0.00 0.00 0.00 92 1010.1
20260505075226 11 102 0.0 0.0 0.00 0.00 0.00 92 1010.1
20260505074724 11 154 1.6 3.2 0.00 0.00 0.00 92 1010.0
20260505074221 11 83 0.0 0.0 0.00 0.00 0.00 92 1010.2
20260505073718 11 25 0.0 3.2 0.00 0.00 0.00 92 1010.3
20260505073216 11 223 1.6 3.2 0.00 0.00 0.00 92 1010.3
20260505072712 11 288 3.2 3.2 0.00 0.00 0.00 92 1010.1
20260505072208 11 117 1.6 3.2 0.00 0.00 0.00 92 1010.1
20260505071704 11 119 0.0 3.2 0.00 0.00 0.00 92 1010.1
20260505071202 11 197 3.2 3.2 0.00 0.00 0.00 92 1010.0
20260505070659 11 102 1.6 3.2 0.00 0.00 0.00 91 1010.0
20260505070155 11 230 3.2 3.2 0.00 0.00 0.00 91 1010.2
20260505065651 11 203 1.6 3.2 0.00 0.00 0.00 91 1010.0
20260505065148 11 253 4.8 4.8 0.00 0.00 0.00 91 1010.2
20260505064645 11 278 4.8 4.8 0.00 0.00 0.00 91 1009.9
20260505064143 12 167 3.2 3.2 0.00 0.00 0.00 91 1010.2
20260505063640 12 109 3.2 4.8 0.00 0.00 0.00 91 1010.2
20260505063136 12 154 3.2 3.2 0.00 0.00 0.00 91 1010.4
20260505062633 12 217 3.2 3.2 0.00 0.00 0.00 91 1010.0
20260505062130 12 256 4.8 4.8 0.00 0.00 0.00 91 1010.3
20260505061627 12 197 1.6 3.2 0.00 0.00 0.00 90 1010.3
20260505061125 12 164 0.0 0.0 0.00 0.00 0.00 90 1010.4
20260505060622 12 154 0.0 3.2 0.00 0.00 0.00 90 1010.4
20260505060119 12 143 1.6 3.2 0.00 0.00 0.00 90 1010.4
20260505055614 12 275 3.2 4.8 0.00 0.00 0.00 90 1010.3
20260505055111 12 207 0.0 0.0 0.00 0.00 0.00 90 1010.4
20260505054608 12 245 3.2 4.8 0.00 0.00 0.00 89 1010.6
20260505054107 12 161 3.2 4.8 0.00 0.00 0.00 89 1010.4
20260505053603 12 267 4.8 4.8 0.00 0.00 0.00 89 1010.4
20260505053100 12 233 4.8 4.8 0.00 0.00 0.00 88 1010.7
20260505052556 12 272 3.2 4.8 0.00 0.00 0.00 88 1010.6
20260505052054 12 144 4.8 4.8 0.00 0.00 0.00 88 1010.5
20260505051551 12 305 4.8 4.8 0.00 0.00 0.00 87 1010.6
20260505051049 12 194 1.6 3.2 0.00 0.00 0.00 87 1010.8
20260505050547 12 144 1.6 3.2 0.00 0.00 0.00 87 1010.6
20260505041515 13 129 0.0 0.0 0.00 0.00 0.00 83 1010.9
20260505041012 13 89 0.0 0.0 0.00 0.00 0.00 83 1011.0
20260505040509 13 104 0.0 0.0 0.00 0.00 0.00 82 1011.0
20260505040007 13 88 0.0 3.2 0.00 0.00 0.00 82 1011.1
20260505035502 13 101 0.0 0.0 0.00 0.00 0.00 82 1010.9
20260505034959 13 134 0.0 0.0 0.00 0.00 0.00 81 1011.0
20260505034455 13 111 0.0 0.0 0.00 0.00 0.00 81 1010.9
20260505033953 13 246 3.2 4.8 0.00 0.00 0.00 81 1011.0
20260505033449 13 185 0.0 0.0 0.00 0.00 0.00 81 1010.9
20260505032948 13 196 0.0 3.2 0.00 0.00 0.00 81 1011.0
20260505032445 13 90 0.0 0.0 0.00 0.00 0.00 81 1011.1
20260505031941 13 270 3.2 3.2 0.00 0.00 0.00 81 1011.0
20260505031438 13 62 0.0 0.0 0.00 0.00 0.00 81 1011.0
20260505030935 13 85 0.0 0.0 0.00 0.00 0.00 81 1011.0
20260505030431 13 258 3.2 3.2 0.00 0.00 0.00 81 1011.1
20260505025926 13 168 0.0 0.0 0.00 0.00 0.00 82 1011.1
20260505025424 13 109 0.0 0.0 0.00 0.00 0.00 82 1011.2
20260505024923 13 20 0.0 3.2 0.00 0.00 0.00 82 1011.3
20260505024420 13 179 0.0 3.2 0.00 0.00 0.00 82 1011.1
20260505023917 13 47 0.0 3.2 0.00 0.00 0.00 82 1011.2
20260505023414 13 224 1.6 3.2 0.00 0.00 0.00 82 1011.3
20260505022911 13 204 3.2 4.8 0.00 0.00 0.00 81 1011.2
20260505022408 13 118 1.6 3.2 0.00 0.00 0.00 81 1011.1
20260505021905 13 117 0.0 3.2 0.00 0.00 0.00 81 1011.3
20260505021402 13 209 3.2 3.2 0.00 0.00 0.00 81 1011.3
20260505020857 13 79 0.0 0.0 0.00 0.00 0.00 81 1011.2
20260505020353 13 242 4.8 4.8 0.00 0.00 0.00 82 1011.3
20260505015850 13 245 3.2 4.8 0.00 0.00 0.00 82 1011.3
20260505015347 13 193 1.6 3.2 0.00 0.00 0.00 82 1011.1
20260505014845 13 178 1.6 3.2 0.00 0.00 0.00 82 1011.1
20260505014341 13 41 4.8 8.0 0.00 0.00 0.00 82 1011.3
20260505013838 13 103 1.6 3.2 0.00 0.00 0.00 81 1011.1
20260505013335 13 70 0.0 3.2 0.00 0.00 0.00 82 1011.2
20260505012834 13 101 1.6 3.2 0.00 0.00 0.00 82 1011.1
20260505012331 13 193 4.8 4.8 0.00 0.00 0.00 82 1011.0
20260505011827 13 140 3.2 4.8 0.00 0.00 0.00 82 1011.0
20260505011324 13 198 0.0 3.2 0.00 0.00 0.00 82 1010.9
20260505010820 13 94 1.6 3.2 0.00 0.00 0.00 81 1010.8
20260505010316 13 111 1.6 3.2 0.00 0.00 0.00 81 1010.8
20260505005812 13 119 3.2 3.2 0.00 0.00 0.00 80 1010.7
20260505005309 13 191 3.2 4.8 0.00 0.00 0.00 79 1010.6
20260505004807 14 186 4.8 4.8 0.00 0.00 0.00 78 1010.6
20260505004302 14 242 4.8 4.8 0.00 0.00 0.00 78 1010.4
20260505003800 13 318 3.2 4.8 0.00 0.00 0.00 79 1010.5
20260505003258 13 232 4.8 8.0 0.00 0.00 0.00 79 1010.6
20260505002754 13 196 6.4 8.0 0.00 0.00 0.00 80 1010.4
20260505002251 13 105 0.0 3.2 0.00 0.00 0.00 79 1010.2
20260505001749 13 297 3.2 4.8 0.00 0.00 0.00 79 1010.2
20260505001246 14 281 8.0 14.5 0.00 0.00 0.00 79 1010.2
20260505000743 14 27 4.8 8.0 0.00 0.00 0.00 78 1009.9
20260505000241 14 139 4.8 4.8 0.00 0.00 0.00 78 1009.9
20260504235737 14 179 4.8 4.8 0.00 0.00 0.00 77 1010.1
20260504235233 14 263 1.6 4.8 0.00 0.00 0.00 77 1009.8
20260504234731 14 108 1.6 3.2 0.00 0.00 0.00 77 1009.7
20260504234228 15 148 3.2 4.8 0.00 0.00 0.00 76 1009.5
20260504233724 15 65 3.2 4.8 0.00 0.00 0.00 75 1009.7
20260504233220 15 41 1.6 3.2 0.00 0.00 0.00 74 1009.7
20260504232717 15 113 4.8 8.0 0.00 0.00 0.00 72 1009.3
20260504232214 15 158 4.8 8.0 0.00 0.00 0.00 71 1009.4
20260504231711 15 203 6.4 8.0 0.00 0.00 0.00 71 1009.4
20260504231207 15 198 4.8 8.0 0.00 0.00 0.00 71 1009.4
20260504230703 15 234 3.2 3.2 0.00 0.00 0.00 71 1009.4
20260504230202 15 327 4.8 8.0 0.00 0.00 0.00 71 1009.3
20260504225701 15 245 4.8 4.8 0.00 0.00 0.00 71 1009.4
20260504225156 15 247 6.4 11.3 0.00 0.00 0.00 71 1009.1
20260504224653 15 29 4.8 8.0 0.00 0.00 0.00 70 1009.4
20260504224150 15 76 3.2 3.2 0.00 0.00 0.00 70 1009.2
20260504223647 15 229 9.7 14.5 0.00 0.00 0.00 69 1009.1
20260504223142 15 217 8.0 14.5 0.00 0.00 0.00 68 1009.3
20260504222640 15 206 4.8 4.8 0.00 0.00 0.00 69 1009.5
20260504222137 15 139 3.2 4.8 0.00 0.00 0.00 69 1009.2
20260504221634 15 67 1.6 3.2 0.00 0.00 0.00 70 1009.5
20260504221131 15 39 4.8 8.0 0.00 0.00 0.00 70 1009.8
20260504220627 15 255 6.4 8.0 0.00 0.00 0.00 69 1009.5
20260504220125 15 214 12.9 24.1 0.00 0.00 0.00 69 1009.7
20260504215621 15 222 8.0 11.3 0.00 0.00 0.00 69 1009.9
20260504215119 16 257 4.8 4.8 0.00 0.00 0.00 68 1009.8
20260504214614 16 203 3.2 4.8 0.00 0.00 0.00 68 1009.7
20260504214111 16 90 3.2 4.8 0.00 0.00 0.00 68 1010.0
20260504213608 16 283 4.8 8.0 0.00 0.00 0.00 66 1009.9
20260504213105 16 283 3.2 3.2 0.00 0.00 0.00 67 1009.9
20260504212600 16 139 4.8 4.8 0.00 0.00 0.00 67 1009.8
20260504212058 16 254 4.8 4.8 0.00 0.00 0.00 67 1009.9
20260504211555 16 10 4.8 8.0 0.00 0.00 0.00 65 1010.0
20260504211051 16 243 12.9 19.3 0.00 0.00 0.00 64 1010.0
20260504210549 17 251 4.8 4.8 0.00 0.00 0.00 64 1010.2
20260504210045 17 227 9.7 11.3 0.00 0.00 0.00 64 1010.1
20260504205543 17 77 4.8 4.8 0.00 0.00 0.00 63 1010.0
20260504205041 17 205 6.4 8.0 0.00 0.00 0.00 64 1009.7
20260504204538 17 276 6.4 8.0 0.00 0.00 0.00 62 1010.0
20260504204038 17 243 6.4 11.3 0.00 0.00 0.00 62 1009.9
20260504203535 17 68 8.0 11.3 0.00 0.00 0.00 63 1010.1
20260504203032 17 256 6.4 11.3 0.00 0.00 0.00 64 1009.8
20260504202528 17 205 4.8 4.8 0.00 0.00 0.00 62 1010.2
20260504202025 17 237 6.4 11.3 0.00 0.00 0.00 61 1010.0
20260504201522 17 318 6.4 11.3 0.00 0.00 0.00 61 1010.0
20260504201020 18 174 11.3 14.5 0.00 0.00 0.00 60 1009.9
20260504200516 18 38 1.6 3.2 0.00 0.00 0.00 59 1010.0
20260504200013 17 238 11.3 14.5 0.00 0.00 0.00 60 1010.1
20260504195509 18 233 6.4 8.0 0.00 0.00 0.00 59 1010.1
20260504195006 17 48 4.8 8.0 0.00 0.00 0.00 60 1010.0
20260504194502 18 228 9.7 14.5 0.00 0.00 0.00 60 1010.1
20260504193957 18 148 3.2 3.2 0.00 0.00 0.00 60 1010.2
20260504193455 18 249 9.7 11.3 0.00 0.00 0.00 57 1010.3
20260504192953 18 343 6.4 8.0 0.00 0.00 0.00 57 1010.3
20260504192450 19 275 3.2 4.8 0.00 0.00 0.00 57 1010.3
20260504191949 18 137 4.8 11.3 0.00 0.00 0.00 57 1010.4
20260504191447 18 335 3.2 4.8 0.00 0.00 0.00 57 1010.2
20260504190942 18 251 9.7 14.5 0.00 0.00 0.00 58 1010.5
20260504190438 18 142 8.0 8.0 0.00 0.00 0.00 58 1010.4
20260504185935 18 238 11.3 14.5 0.00 0.00 0.00 55 1010.8
20260504185432 20 311 3.2 4.8 0.00 0.00 0.00 53 1010.6
20260504184928 19 30 4.8 8.0 0.00 0.00 0.00 52 1010.4
20260504184424 20 134 3.2 4.8 0.00 0.00 0.00 52 1010.6
20260504183920 20 211 12.9 22.5 0.00 0.00 0.00 49 1010.8
20260504183417 21 242 11.3 16.1 0.00 0.00 0.00 44 1010.5
20260504182915 23 228 3.2 3.2 0.00 0.00 0.00 29 1010.4
20260504182412 23 130 1.6 3.2 0.00 0.00 0.00 30 1010.4
20260504181908 23 190 6.4 14.5 0.00 0.00 0.00 29 1010.3
20260504181406 23 235 8.0 8.0 0.00 0.00 0.00 30 1010.7
20260504180905 23 305 1.6 3.2 0.00 0.00 0.00 29 1010.7
20260504180403 23 270 6.4 8.0 0.00 0.00 0.00 29 1011.0
20260504175901 23 285 4.8 8.0 0.00 0.00 0.00 30 1011.0
20260504175357 23 110 1.6 3.2 0.00 0.00 0.00 30 1010.9
20260504174855 22 277 4.8 4.8 0.00 0.00 0.00 30 1011.2
20260504174352 23 84 1.6 3.2 0.00 0.00 0.00 30 1011.1
20260504173849 22 250 6.4 8.0 0.00 0.00 0.00 29 1011.0
20260504173346 22 15 0.0 0.0 0.00 0.00 0.00 29 1010.9
20260504172843 22 259 4.8 4.8 0.00 0.00 0.00 29 1011.0
20260504172340 23 150 6.4 8.0 0.00 0.00 0.00 29 1011.2